Current Version              Previous Version:    01  02  03  04  05  06  07  08  09  10  11  12  13  14  15  16  17  18  19  20  21  22  23  24  25  26  27  28  29  30  
   31  32  33  34  35  36  37  38  39  40  41  42  43  44  45  46  47  48  49  50  51  52  53  54  55  56  57  58  59  60  

[Printable]
612
ASUS44 KEWX 231002
RWRTX
SOUTH TEXAS REGIONAL WEATHER ROUNDUP
NATIONAL WEATHER SERVICE AUSTIN/SAN ANTONIO TX
500 AM CDT THU OCT 23 2014

NOTE: "FAIR" INDICATED FEW OR NO CLOUDS BELOW 12,000 FEET WITH NO
SIGNIFICANT WEATHER AND/OR OBSTRUCTIONS TO VISIBILITY.

* - THESE STATIONS ARE NOT NWS OR FAA STATIONS...AND ARE NOT SUBJECT
    TO NWS AND FAA QUALITY CONTROL.

TXZ171-172-183>190-231100-
TEXAS HILL COUNTRY AND EDWARDS PLATEAU

CITY           SKY/WX    TMP DP  RH WIND       PRES   REMARKS
JUNCTION       PTCLDY    59  58  96 NW3       30.12S FOG
*LLANO         NOT AVBL
BURNET         CLOUDY    66  58  75 CALM      30.12F
*HORSESHOE BAY CLOUDY    66  58  76 CALM      30.10S
*KERRVILLE     CLOUDY    62  60  94 CALM      30.12F
*FREDERICKSBRG CLOUDY    64  60  86 CALM      30.11F
*ROCKSPRINGS   PTCLDY    59  57  94 CALM      30.15S FOG
*BOERNE STAGE  CLOUDY    63  61  94 CALM      30.12F
*CASTROVILLE   CLOUDY    67  65  93 NE3       30.12S
HONDO          CLOUDY    64  32  30 CALM      30.12F
*UVALDE        CLOUDY    68  67  96 NE5       30.09F
DEL RIO        CLOUDY    64  63  96 CALM      30.07F FOG
LAUGHLIN AFB   PTCLDY    62  62  99 NW5       30.08S
CARRIZO SPRGS  RAIN      68  64  88 E3        30.07S
$$

TXZ173-191>194-202-209-217>225-228-231100-
CENTRAL AND SOUTH CENTRAL TEXAS

CITY           SKY/WX    TMP DP  RH WIND       PRES   REMARKS
GEORGETOWN     CLOUDY    66  59  77 CALM      30.10S
AUSTIN/BERGSTM CLOUDY    64  63  96 CALM      30.08F
AUSTIN/MABRY   CLOUDY    67  60  78 CALM      30.10F
*AUSTIN/EXEC   CLOUDY    64  59  82 CALM      30.09F
*LAGO VISTA    CLOUDY    66  59  76 CALM      30.11F
SAN MARCOS     CLOUDY    64  59  82 CALM      30.11S
NEW BRAUNFELS  CLOUDY    66  32  28 CALM      30.07F
RANDOLPH AFB   CLOUDY    66  63  88 N1        30.10S
PT SAN ANTONIO CLOUDY    68  64  88 N6        30.09S
SAN ANTONIO    DRIZZLE   68  65  90 NE3       30.10F
STINSON FIELD  CLOUDY    69  63  81 N3        30.09R
*PLEASANTON    CLOUDY    67  64  89 N3        30.08S
*LA GRANGE     CLOUDY    66  64  93 CALM      30.06F
*GIDDINGS      CLOUDY    65  58  79 E3        30.12S
*GONZALES      CLOUDY    66  61  83 CALM      30.07S
$$

TXZ163>164-176>182-195>201-210>213-226-227-235-231100-
SOUTHEAST TEXAS

CITY           SKY/WX    TMP DP  RH WIND       PRES   REMARKS
COLLEGE STN    LGT RAIN  65  56  72 E6        30.08F
*BRYAN         CLOUDY    62  57  84 CALM      30.11R
*CALDWELL      CLOUDY    64  59  82 CALM      30.13R
*CROCKETT      CLOUDY    64  55  72 CALM      30.14R
*BRENHAM       LGT RAIN  66  58  76 E8        30.08F
HUNTSVILLE     CLOUDY    61  56  83 CALM      30.10R
CONROE         CLOUDY    61  53  75 VRB3      30.10S
HOUSTON BUSH   MOCLDY    60  56  86 NE6       30.08F
HOUSTON HOBBY  PTCLDY    62  57  83 NE3       30.06F
*HOUSTON SW AP PTCLDY    54  52  92 NE6       30.06F
PEARLAND       PTCLDY    63  57  81 NE6       30.08S
HOUSTON HOOKS  PTCLDY    62  55  77 CALM      30.08F
ELLINGTON FLD  PTCLDY    64  59  82 NE5       30.08F
SUGAR LAND     PTCLDY    61  57  87 NE5       30.06F
*HOUSTON EXEC  MOCLDY    59 N/A N/A NE6       30.08F
*CLEVELAND MUN PTCLDY    59  55  87 CALM      30.10F
*WHARTON       PTCLDY    59  58  95 CALM      30.07F
*COLUMBUS      FAIR      62  59  90 CALM      30.07S
$$

TXZ214>216-236>238-231100-
THE UPPER TEXAS COAST

CITY           SKY/WX    TMP DP  RH WIND       PRES   REMARKS
*ORANGE        PTCLDY    57  53  85 N3        30.10S
PORT ARTHUR    PTCLDY    59  52  77 NE7       30.07S
GALVESTON      CLEAR     67  62  84 NE10      30.06S
ANGLETON       PTCLDY    58  58 100 N7        30.06S
*BAY CITY        N/A     63  61  96 NE6       30.05F
PALACIOS       PTCLDY    62  59  90 NE7       30.04F
$$

TXZ229>234-239>247-231100-
TEXAS COASTAL BEND AND RIO GRANDE PLAINS

CITY           SKY/WX    TMP DP  RH WIND       PRES   REMARKS
VICTORIA       PTCLDY    61  58  90 E3        30.05F FOG
*BEEVILLE      PTCLDY    64  62  94 N3        30.06S
ROCKPORT       CLEAR     68  63  84 N6        30.03F
*PORT ARANSAS  PTCLDY    73  62  70 NE6       30.03S
*PORT LAVACA   PTCLDY    64  61  89 N6        30.05S
*INGLESIDE     CLEAR     66  62  88 N5        30.03S
CORPUS CHRISTI PTCLDY    68  63  84 N7        30.03F
CORPUS NAS     CLEAR     73  65  75 E6        30.03S
*ROBSTOWN      NOT AVBL
ALICE          CLEAR     64  62  93 N6        30.04S
KINGSVILLE NAS CLEAR     64  64 100 N6        30.03F
COTULLA        CLOUDY    72  64  76 NE3       30.07F
*FAITH RANCH   CLOUDY    68  63  83 CALM      30.08S
LAREDO         CLOUDY    71  66  84 E6        30.08F
$$

TXZ248>255-231100-
DEEP SOUTH TEXAS

CITY           SKY/WX    TMP DP  RH WIND       PRES   REMARKS
BROWNSVILLE    CLEAR     69  67  93 NW5       29.99F
PORT ISABEL    CLEAR     73  66  78 NE3       29.99F
*SOUTH PADRE     N/A    N/A N/A N/A E6        29.98F
HARLINGEN      CLEAR     66  65  96 NW6       30.00S
*HEBBRONVILLE  MOCLDY    67  64  87 CALM      30.06S
MCALLEN        MOCLDY    70  67  90 N8        30.02F
*WESLACO       CLEAR     66  64  91 NW3       30.01S FOG
FALFURRIAS     CLEAR     64  63  94 N5        30.03S
EDINBURG       PTCLDY    68  65  90 CALM      30.02S
*ZAPATA        CLOUDY    67  65  93 CALM      30.05S
$$

TXZ213>215-236>238-242>244-246-247-251-254-255-231100-
CMAN STATIONS

STATION/POSITION TIME  TEMP    WIND        PRES    WAVE
                       AIR SEA DIR/SP/G            HT/PER
                 (UTC) (F)     (DEG/KT/KT) (MB)    (FT/S)
SABINE PASS      0900   61 73   20/  7/  8 1018.1
SEA RIM ST PARK  0900   62      50/  6/  7 1018.6
NORTH JETTY/GLS  0900   69 76   70/ 14/ 17   N/A
EAGLE POINT      0900   69 74   80/ 13/ 17 1018.1
MORGANS POINT    0900   65      40/  8/ 10 1018.2
PORT O`CONNOR    0900           40/ 12/ 14   N/A
PORT ARANSAS     0900   76 77   70/ 11/ 12 1017.3
MALAQUITE BEACH  0900   76 78   50/  6/  8 1016.1
BAFFIN BAY       0900   72 82  340/  6/  7 1016.5
PORT ISABEL      0900   78 79   60/  4/  8 1015.5
$$

GMZ080-GMZ150>470-231100-
OFFSHORE BUOY REPORTS

STATION/POSITION TIME  TEMP    WIND        PRES    WAVE
                       AIR SEA DIR/SP/G            HT/PER
                 (UTC) (F)     (DEG/KT/KT) (MB)    (FT/S)
20 E GALVESTON   1000   73 78   60/ 16/ 17 1016.7    3/ 4
90 E PT ARANSAS  1000   76 81   70/ 10/ 12 1016.6    4/ 7
35 NE PT MANSFLD 0900   78 81   70/ 10/ 12 1015.6    5/ 7
200 E PT ISABEL  0900   79 81   50/ 14/ 16 1014.2    6/ 7
$$